Temperature
19 19 19 19 19 18 18 19 18 18 18 18 18 18 18 18 18 18 18 18 18 18 18 18 18 18 18 18 18 18 18 18 18 18 18 18 18 18 18 17 17 18 18
19 19 19 19 19 18 18 18 18 18 18 18 18 18 18 18 18 18 18 18 18 18 18 18 18 18 18 18 18 18 18 18 18 18 18 18 18 17 17 17 17 18 17
19 19 19 19 19 18 18 18 18 18 18 18 18 18 18 18 18 18 18 18 18 18 18 18 18 18 18 18 18 18 18 18 18 18 18 18 17 17 17 17 17 17 17
19 19 19 19 19 19 18 18 18 18 18 18 18 18 18 18 18 18 18 18 18 18 18 18 18 18 18 18 18 18 18 18 18 17 17 17 17 17 17 17 17 17 17
19 19 19 19 19 19 18 18 18 18 18 18 18 18 18 18 18 18 18 18 18 18 18 18 18 18 18 18 18 18 18 18 18 17 17 17 18 18 18 18 17 17 17
20 19 20 19 19 19 19 18 18 18 18 18 18 18 18 18 18 18 18 18 18 18 18 18 18 18 18 18 18 18 18 18 18 17 17 17 18 18 17 17 17 17 17
20 19 20 19 19 19 19 18 18 18 18 18 18 18 18 18 18 18 18 18 18 18 18 18 18 18 18 18 18 18 18 18 18 17 17 18 18 18 18 17 17 17 17
21 20 20 19 19 19 19 19 18 18 18 18 18 18 18 18 18 18 18 18 18 18 18 18 18 18 18 18 18 18 18 18 18 18 18 18 18 18 18 17 17 17 17
21 20 20 20 19 19 19 19 19 19 18 18 18 18 18 18 18 18 18 18 18 18 18 18 18 18 18 18 18 18 18 18 18 18 18 18 18 18 18 17 17 17 17
21 20 20 19 19 19 19 19 19 19 19 19 19 18 18 18 18 18 18 18 18 18 18 18 18 18 18 18 19 19 19 18 18 18 18 18 18 18 18 17 17 17 17
21 21 20 20 20 19 19 19 19 19 19 18 18 18 18 18 18 18 18 18 18 18 18 18 18 18 18 18 19 19 19 19 18 18 18 18 18 18 18 18 17 17 17
21 21 21 20 20 20 20 19 19 19 18 18 18 18 18 18 18 18 18 18 18 18 18 18 18 18 18 18 19 19 19 19 19 18 18 18 18 18 18 18 17 17 17
22 21 21 20 20 20 20 20 19 19 19 18 18 18 18 18 18 18 18 18 18 18 18 18 18 18 18 18 19 19 19 19 19 19 19 18 18 18 18 18 18 17 17
22 21 21 20 20 20 20 20 19 19 19 19 19 19 19 18 18 18 18 18 18 18 18 18 18 18 18 19 19 19 19 19 19 19 19 18 18 18 18 18 17 17 17
21 21 21 20 20 19 20 20 20 19 19 19 19 19 19 19 19 18 18 18 18 19 19 18 18 18 19 19 19 19 19 19 19 19 18 18 18 18 18 18 17 17 17
21 21 20 20 20 19 19 19 20 19 19 19 19 19 19 18 18 18 18 19 19 19 19 19 19 19 19 19 19 19 19 19 18 18 18 18 18 18 18 18 17 17 17
21 21 20 20 20 19 19 19 19 19 19 19 19 19 19 18 18 18 18 18 19 19 19 19 19 19 19 19 19 19 18 18 18 18 18 18 18 18 18 17 17 17 17
22 21 21 21 20 20 20 19 19 19 19 19 19 19 19 19 18 19 18 18 19 19 19 19 19 19 19 19 18 18 18 18 18 18 18 18 18 17 17 17 17 17 17
22 21 21 20 20 20 20 19 19 19 19 19 19 19 19 18 18 18 18 19 19 19 18 19 19 18 19 19 18 18 18 18 18 18 18 17 17 17 17 17 17 17 17
22 21 20 20 20 19 19 19 19 19 19 19 19 19 19 18 18 18 18 18 19 18 18 18 18 18 18 18 18 18 18 18 18 18 18 17 17 17 17 17 17 17 16
22 21 20 20 20 20 19 19 19 19 19 19 19 19 19 19 18 18 18 18 18 18 18 18 18 18 18 18 18 18 18 18 18 18 18 17 17 17 17 17 17 16 16
22 21 21 20 20 20 20 20 20 20 19 19 19 19 19 19 18 18 18 18 18 18 18 18 18 18 18 18 18 18 18 18 18 17 17 17 17 17 17 16 16 16 16
22 22 21 21 20 20 20 20 20 19 19 19 19 19 19 19 18 18 18 18 18 18 18 18 18 18 18 18 18 18 18 17 17 17 17 17 17 16 16 16 16 16 16
23 22 21 21 21 20 20 20 19 19 19 20 19 19 19 19 18 18 18 18 18 18 18 18 18 18 18 18 18 18 18 18 17 16 16 16 16 16 16 16 16 15 15
23 22 22 21 21 21 20 20 20 20 19 19 19 19 19 19 18 18 18 18 18 18 18 18 18 18 18 18 18 18 18 17 17 17 16 16 16 16 15 15 15 15 15
24 23 22 21 21 21 21 20 20 20 20 19 19 19 19 19 19 18 18 18 18 18 18 18 18 18 18 18 18 17 17 17 17 17 16 16 15 15 15 15 15 15 14
Wind_Speed
12 12 12 12 12 12 13 14 14 15 16 16 16 17 17 17 18 18 19 19 19 19 20 19 19 19 19 20 20 20 20 20 21 21 20 19 18 17 17 17 17 17 17
14 13 13 13 13 13 14 15 15 16 16 16 16 16 17 16 17 18 18 19 19 19 19 19 19 19 19 19 19 18 19 19 19 20 20 19 18 17 15 15 18 16 17
14 13 13 13 13 14 14 15 16 16 17 17 16 16 16 16 17 18 18 18 18 18 19 19 19 18 18 18 17 16 17 17 18 18 19 17 16 16 17 19 20 18 17
14 14 13 13 13 14 14 15 15 16 16 16 16 16 16 16 17 18 18 18 18 18 18 18 18 18 17 16 15 15 15 14 14 14 13 15 15 17 18 18 18 17 16
15 16 14 13 13 14 14 15 15 15 16 16 16 16 16 16 17 17 17 17 17 17 17 17 17 17 16 14 13 12 11 11 10 10 14 16 16 16 17 17 16 16 15
15 16 15 13 13 13 14 14 14 15 15 15 15 16 16 16 16 16 16 16 17 17 17 17 16 16 14 12 10 9 7 6 6 10 16 17 15 16 16 15 15 15 14
15 16 15 14 13 13 13 13 14 14 14 15 15 15 15 15 15 15 15 16 16 16 16 16 15 14 12 10 8 6 4 2 5 11 15 16 15 15 15 14 14 13 13
15 16 15 14 13 13 13 13 13 13 13 14 14 14 14 14 14 14 14 14 14 15 15 14 13 12 10 7 5 3 1 1 8 13 16 16 16 15 14 14 13 12 12
13 14 14 14 13 13 13 12 12 12 11 12 12 12 13 13 13 13 13 13 13 13 13 12 11 10 8 5 2 1 2 2 4 11 15 14 15 14 13 13 12 12 11
11 11 11 13 14 13 12 12 11 11 10 10 10 10 11 12 12 12 12 11 11 11 11 10 9 8 6 3 1 1 3 2 4 11 14 14 15 13 12 12 11 11 10
9 8 8 9 10 11 13 13 12 11 9 8 8 9 9 8 9 9 11 11 10 9 9 8 8 7 5 4 4 4 4 2 7 11 13 16 15 13 12 11 10 10 10
7 7 7 7 6 7 8 10 10 9 9 6 6 7 7 5 6 10 11 10 9 8 7 8 7 7 6 6 7 7 5 4 8 11 13 17 15 13 12 11 10 9 9
6 6 9 8 5 5 5 5 5 6 7 6 5 5 5 5 6 7 7 8 8 8 7 8 8 8 7 5 4 5 3 3 7 11 14 16 14 13 11 11 10 9 8
6 7 7 9 6 5 4 3 3 4 4 5 5 3 4 2 2 3 2 5 5 4 4 5 5 6 5 4 3 2 0 2 7 11 14 16 14 13 12 11 10 9 9
6 7 8 8 6 4 4 3 2 3 3 5 5 3 3 2 2 2 1 0 1 3 3 2 1 1 1 1 2 1 1 2 6 9 12 16 15 13 12 11 10 9 9
7 7 7 7 6 4 3 1 1 2 3 4 4 4 2 2 2 2 1 1 1 1 1 1 1 1 0 0 0 1 1 2 4 8 11 13 14 14 13 12 11 10 10
7 7 6 6 6 4 2 1 1 1 3 3 4 5 3 3 2 1 1 1 1 1 1 0 1 1 2 2 1 1 1 2 2 5 8 10 11 12 12 12 11 11 11
8 7 4 4 7 5 3 1 1 2 2 2 4 4 3 3 2 1 1 1 1 1 1 1 1 1 1 0 1 1 1 2 2 4 5 7 9 9 11 11 11 11 10
8 7 5 2 5 4 4 2 1 1 1 0 1 3 3 3 3 2 1 0 1 1 1 2 1 0 1 1 1 1 1 1 2 2 3 4 6 8 8 10 10 9 9
8 7 6 4 3 3 3 2 1 1 1 1 1 2 2 2 2 2 1 1 1 1 1 1 0 0 1 1 2 1 1 1 2 1 2 3 4 6 7 8 8 8 8
9 8 6 5 5 3 1 2 2 2 2 2 2 3 2 1 1 1 1 0 1 1 1 1 1 1 2 1 0 0 0 1 2 2 1 2 3 4 6 7 6 6 6
10 9 8 6 5 5 3 2 1 1 1 2 1 2 2 1 1 2 1 1 1 1 1 1 1 1 2 1 1 1 0 0 1 1 2 2 2 4 4 6 6 6 5
10 10 8 6 6 5 4 3 2 2 1 1 2 2 2 1 1 1 1 1 2 1 1 2 1 2 2 2 1 1 1 1 1 2 2 3 3 3 3 4 6 6 7
11 10 8 8 6 5 5 3 3 3 2 2 2 2 3 2 2 1 1 1 2 1 1 2 0 2 2 2 2 2 1 1 2 1 1 2 4 4 3 3 5 6 6
12 11 9 8 7 6 5 5 3 2 2 2 2 3 2 2 1 0 0 0 1 1 1 2 1 1 2 2 2 2 2 2 2 2 2 2 2 2 2 3 4 6 7
11 11 11 9 7 6 6 5 4 3 1 1 1 2 2 2 1 1 1 1 1 1 1 2 2 1 1 2 2 2 2 2 2 2 2 3 2 1 2 3 3 5 7
Wind_Direction
84 79 67 63 59 59 63 65 63 62 65 68 69 71 73 76 82 85 90 92 93 95 97 98 99 99 99 101 102 103 106 109 110 111 110 109 109 109 110 111 109 103 107
92 86 74 66 64 67 69 69 68 67 67 73 72 75 76 78 83 87 89 91 93 95 98 98 98 99 100 102 104 107 109 113 116 117 115 111 109 108 108 107 103 109 111
97 94 81 70 69 73 74 72 71 70 69 73 75 78 77 81 87 88 89 91 94 96 97 98 100 101 103 105 108 112 115 120 124 126 121 113 109 105 102 102 106 111 112
95 90 84 78 74 77 77 77 76 74 73 74 77 79 78 82 90 89 90 92 93 95 96 97 100 102 104 106 110 115 121 126 132 135 122 115 110 106 105 107 111 113 113
96 96 90 83 79 79 80 81 80 79 78 77 81 83 83 84 89 90 91 93 93 95 97 98 100 102 103 107 111 115 124 132 137 123 108 106 105 112 112 113 115 116 115
107 101 96 90 85 83 85 85 84 82 81 80 84 86 85 85 86 90 91 93 95 96 98 99 100 102 104 109 113 116 124 134 131 118 115 112 113 119 118 117 118 120 120
106 106 104 99 94 89 90 88 87 86 85 85 84 87 88 88 88 90 90 92 94 96 99 100 101 103 106 108 113 118 135 160 129 113 110 111 118 123 122 122 122 123 123
110 110 113 109 104 97 94 95 93 90 89 90 90 90 90 90 91 90 93 94 97 100 102 103 103 105 106 107 108 103 102 15 104 111 109 114 126 127 128 128 127 128 128
108 118 127 127 122 113 106 103 102 101 98 97 97 99 101 98 99 97 97 100 101 103 105 107 108 110 112 112 107 51 6 18 94 117 115 121 131 133 134 134 134 135 133
106 115 126 134 140 136 124 122 119 117 114 112 113 114 115 116 114 115 110 107 109 112 114 116 118 120 125 135 173 273 312 337 127 111 113 127 136 137 139 140 141 141 140
103 110 114 120 136 138 133 137 142 137 136 137 138 142 143 141 136 132 114 119 121 126 131 133 135 138 152 184 220 254 280 239 114 106 114 134 140 141 142 144 147 148 149
112 113 108 102 110 120 121 142 156 144 146 163 144 157 168 159 136 125 131 136 138 143 151 160 160 168 197 196 206 225 238 189 121 112 125 141 143 146 148 150 152 153 153
125 114 110 100 90 90 104 138 144 129 146 154 131 138 130 132 135 134 150 156 166 171 183 173 185 201 210 214 198 208 235 104 110 118 138 146 149 153 157 160 162 163 163
122 110 106 104 86 60 52 85 128 126 146 134 138 146 123 112 116 129 155 160 176 180 186 181 200 199 195 193 200 199 194 83 106 119 145 153 156 161 166 170 173 176 176
122 114 97 98 95 83 48 359 85 103 110 121 130 116 133 142 113 112 86 93 185 169 182 204 193 149 146 179 205 154 81 69 119 128 146 162 164 169 174 177 180 183 185
133 124 118 119 120 117 118 353 350 98 104 117 119 123 113 105 113 123 165 214 260 158 150 167 151 126 157 150 284 95 144 120 121 136 149 167 174 177 182 185 188 189 193
136 125 126 140 132 132 142 210 200 158 142 123 120 127 136 115 124 160 204 196 232 205 145 167 220 172 199 204 197 187 135 121 132 133 148 163 177 186 192 195 196 198 203
138 133 158 156 135 141 140 285 323 42 75 115 135 137 144 140 158 233 248 222 242 235 192 216 243 192 239 204 212 213 146 132 157 146 152 160 165 177 193 199 198 200 202
136 140 153 133 131 145 152 176 217 81 53 355 121 137 151 184 190 224 237 236 269 288 273 256 121 217 235 213 231 195 163 159 158 152 133 154 153 152 166 181 186 194 199
141 144 154 164 148 161 162 172 202 166 173 171 139 128 146 208 206 240 217 201 224 256 283 296 325 220 255 242 261 141 153 168 146 137 155 144 136 146 156 161 172 187 193
150 153 163 171 157 167 187 187 190 185 198 179 169 153 172 217 234 241 304 208 219 248 270 276 279 240 227 211 230 318 195 167 124 108 123 113 106 124 131 138 150 156 166
159 162 167 172 165 173 183 183 182 198 219 179 155 147 170 182 263 246 218 263 228 236 279 272 267 276 268 218 197 199 244 283 73 92 94 96 97 97 103 126 129 136 141
168 169 171 166 168 179 179 183 191 172 238 197 169 150 156 168 207 312 309 302 285 247 239 251 240 252 259 260 220 200 207 197 109 50 83 101 100 91 84 89 101 110 117
172 168 163 162 169 174 175 188 201 187 193 200 185 145 157 174 202 227 276 298 302 299 272 277 166 270 254 262 257 239 225 151 158 138 61 75 78 74 68 75 81 87 102
175 169 163 161 166 169 181 194 207 220 204 182 153 142 151 155 185 176 344 22 312 327 332 319 332 293 268 271 263 248 240 208 193 182 177 136 82 67 78 84 88 87 99
172 169 165 160 166 172 181 189 197 218 211 145 145 158 181 160 150 117 104 46 360 8 348 339 314 313 308 296 283 262 243 218 203 190 176 158 134 105 83 87 97 93 96
Height
1517 1515 1514 1513 1511 1510 1509 1508 1508 1507 1506 1506 1506 1505 1505 1505 1505 1506 1507 1508 1510 1511 1513 1515 1517 1519 1521 1523 1525 1526 1529 1531 1533 1536 1538 1540 1542 1543 1545 1547 1548 1550 1551
1518 1517 1515 1515 1513 1512 1512 1511 1511 1510 1509 1509 1509 1509 1508 1508 1509 1510 1511 1512 1514 1515 1517 1519 1520 1522 1524 1526 1528 1530 1532 1534 1536 1538 1541 1542 1544 1546 1547 1549 1550 1551 1553
1519 1518 1517 1516 1515 1515 1514 1514 1514 1513 1513 1512 1512 1512 1512 1512 1513 1514 1515 1516 1517 1519 1520 1522 1524 1526 1527 1529 1531 1533 1535 1537 1539 1541 1543 1545 1547 1548 1550 1551 1552 1554 1555
1522 1520 1519 1518 1518 1517 1517 1517 1517 1516 1516 1516 1516 1515 1515 1515 1516 1518 1519 1520 1521 1522 1524 1525 1527 1529 1531 1532 1535 1537 1539 1541 1542 1544 1546 1548 1549 1550 1552 1553 1554 1556 1557
1523 1522 1521 1520 1520 1520 1520 1520 1520 1520 1519 1519 1519 1519 1519 1519 1520 1521 1522 1524 1525 1526 1527 1529 1530 1532 1534 1536 1538 1540 1542 1543 1545 1547 1549 1550 1551 1552 1554 1555 1556 1557 1559
1525 1524 1523 1523 1522 1522 1522 1523 1523 1523 1523 1522 1522 1523 1523 1523 1524 1525 1526 1527 1528 1529 1531 1532 1533 1535 1537 1539 1541 1543 1544 1546 1548 1550 1551 1552 1553 1554 1555 1556 1557 1559 1560
1527 1526 1526 1525 1525 1525 1525 1525 1526 1526 1526 1526 1526 1526 1526 1527 1527 1528 1529 1530 1531 1532 1534 1535 1537 1538 1540 1542 1543 1545 1547 1548 1550 1552 1553 1553 1554 1556 1557 1558 1559 1560 1562
1529 1528 1528 1528 1528 1528 1528 1528 1528 1529 1529 1529 1529 1529 1530 1530 1531 1531 1532 1533 1535 1536 1537 1538 1539 1541 1543 1544 1546 1547 1549 1550 1553 1554 1554 1555 1556 1557 1558 1559 1560 1562 1563
1530 1530 1530 1530 1531 1531 1531 1531 1531 1532 1532 1532 1533 1533 1533 1534 1534 1535 1535 1536 1538 1539 1540 1541 1542 1543 1545 1547 1548 1549 1551 1552 1554 1555 1555 1556 1557 1558 1559 1560 1561 1563 1564
1533 1533 1533 1533 1533 1533 1534 1534 1534 1535 1535 1535 1536 1536 1537 1537 1538 1538 1539 1540 1541 1542 1543 1544 1545 1546 1547 1549 1550 1551 1553 1554 1555 1556 1556 1557 1558 1559 1560 1561 1562 1563 1564
1535 1535 1535 1536 1537 1537 1537 1537 1537 1538 1538 1538 1539 1540 1540 1540 1541 1542 1543 1543 1544 1545 1545 1546 1548 1549 1550 1551 1552 1553 1554 1555 1556 1557 1557 1558 1559 1560 1561 1562 1563 1564 1565
1536 1537 1537 1538 1539 1540 1540 1540 1540 1540 1541 1541 1542 1542 1543 1544 1545 1545 1545 1546 1546 1547 1548 1549 1550 1551 1552 1553 1554 1555 1555 1556 1557 1557 1558 1559 1560 1560 1561 1562 1563 1564 1565
1537 1538 1539 1539 1540 1541 1542 1542 1542 1543 1543 1543 1544 1545 1545 1546 1547 1547 1547 1548 1549 1549 1550 1551 1551 1552 1553 1554 1555 1555 1556 1558 1558 1557 1558 1559 1560 1561 1561 1562 1563 1564 1565
1538 1539 1540 1540 1540 1541 1542 1543 1544 1544 1544 1545 1545 1546 1547 1548 1549 1549 1549 1550 1550 1551 1551 1552 1553 1554 1555 1555 1556 1556 1557 1558 1558 1558 1558 1559 1560 1561 1561 1562 1563 1564 1565
1539 1539 1540 1540 1541 1542 1542 1543 1545 1545 1545 1545 1546 1547 1548 1549 1549 1550 1550 1551 1552 1552 1553 1553 1554 1554 1555 1555 1556 1557 1557 1558 1558 1558 1558 1559 1560 1561 1561 1562 1563 1564 1565
1539 1540 1540 1541 1541 1542 1543 1544 1544 1545 1546 1546 1547 1548 1548 1549 1550 1550 1551 1551 1552 1553 1553 1554 1554 1554 1555 1555 1556 1556 1557 1558 1558 1558 1558 1559 1559 1560 1561 1561 1562 1563 1564
1539 1540 1540 1541 1541 1542 1543 1544 1545 1546 1546 1547 1547 1548 1549 1549 1550 1551 1551 1552 1552 1553 1553 1553 1554 1554 1554 1555 1555 1556 1556 1557 1558 1558 1558 1558 1558 1559 1559 1560 1561 1562 1562
1538 1539 1540 1542 1541 1542 1543 1544 1545 1546 1546 1547 1548 1548 1549 1549 1550 1550 1551 1551 1552 1552 1553 1553 1553 1553 1553 1554 1554 1555 1555 1556 1557 1557 1557 1557 1557 1558 1558 1559 1560 1560 1561
1537 1538 1539 1541 1541 1542 1543 1543 1545 1545 1546 1547 1547 1548 1548 1549 1549 1550 1550 1551 1551 1551 1552 1552 1552 1552 1552 1553 1553 1554 1554 1555 1555 1556 1556 1556 1556 1556 1556 1557 1557 1558 1559
1536 1537 1539 1540 1541 1541 1542 1543 1544 1545 1545 1546 1547 1547 1548 1548 1549 1549 1550 1550 1550 1550 1550 1551 1551 1551 1551 1552 1552 1552 1552 1553 1554 1554 1554 1555 1555 1555 1555 1555 1556 1556 1557
1535 1536 1538 1539 1539 1540 1541 1542 1543 1544 1545 1546 1546 1546 1547 1547 1548 1548 1549 1549 1549 1549 1549 1549 1549 1550 1550 1550 1550 1551 1551 1551 1552 1552 1552 1553 1553 1553 1554 1554 1554 1554 1555
1533 1535 1536 1537 1539 1539 1541 1542 1543 1544 1544 1545 1545 1546 1546 1546 1547 1547 1547 1547 1547 1547 1548 1548 1548 1548 1548 1548 1549 1549 1550 1551 1550 1550 1550 1551 1551 1552 1552 1552 1552 1552 1552
1532 1533 1535 1536 1537 1538 1539 1541 1542 1543 1544 1544 1545 1545 1545 1545 1546 1546 1546 1546 1546 1546 1546 1546 1546 1546 1546 1547 1547 1548 1548 1548 1549 1550 1549 1549 1550 1550 1551 1551 1551 1551 1551
1530 1532 1533 1535 1536 1537 1538 1540 1541 1542 1543 1543 1544 1544 1544 1544 1545 1545 1545 1544 1544 1544 1544 1544 1544 1544 1544 1544 1545 1545 1546 1546 1547 1547 1548 1548 1548 1549 1549 1549 1549 1549 1549
1529 1530 1532 1533 1534 1536 1537 1538 1539 1541 1542 1543 1543 1544 1544 1544 1543 1543 1543 1543 1543 1543 1543 1543 1542 1542 1542 1542 1542 1543 1543 1544 1544 1545 1546 1547 1547 1547 1547 1547 1547 1547 1547
1527 1529 1530 1531 1532 1534 1535 1537 1538 1539 1540 1542 1542 1543 1543 1543 1543 1543 1543 1542 1542 1542 1541 1541 1541 1541 1540 1540 1540 1541 1541 1541 1541 1542 1543 1544 1545 1546 1546 1546 1546 1546 1546